Tabellarische Ansicht des 1.11.2021


Die einzelnen Werte des Tages

Uhrzeit Temperatur Luftdruck Luftfeuchte Wind Hi-Wind Taupunkt THW Index Wind Chill Heat Index Solar- strahlung Regen

00:00

15.5 C

995.1 hpa

82 %

17.7 km/h aus 117

29.0 km/h aus SSW

12.4 C

13.4 C

13.4 C

15.5 C

0 W/m

0.00 mm

00:05

15.2 C

995.1 hpa

81 %

20.9 km/h aus 68

38.6 km/h aus SSW

12.0 C

12.5 C

12.6 C

15.2 C

0 W/m

0.00 mm

00:10

14.7 C

995.1 hpa

77 %

17.7 km/h aus 115

32.2 km/h aus SW

10.7 C

12.3 C

12.6 C

14.5 C

0 W/m

0.00 mm

00:15

14.2 C

995.3 hpa

74 %

14.5 km/h aus 115

32.2 km/h aus WSW

9.6 C

12.3 C

12.6 C

13.8 C

0 W/m

0.00 mm

00:20

13.9 C

995.3 hpa

74 %

16.1 km/h aus 116

32.2 km/h aus WSW

9.4 C

11.7 C

12.0 C

13.6 C

0 W/m

0.00 mm

00:25

13.8 C

995.3 hpa

74 %

8.0 km/h aus 117

19.3 km/h aus W

9.3 C

13.2 C

13.5 C

13.5 C

0 W/m

0.00 mm

00:30

13.7 C

995.6 hpa

75 %

6.4 km/h aus 117

19.3 km/h aus SW

9.4 C

13.4 C

13.7 C

13.4 C

0 W/m

0.00 mm

00:35

13.6 C

995.6 hpa

75 %

16.1 km/h aus 113

27.4 km/h aus SSW

9.3 C

11.3 C

11.6 C

13.3 C

0 W/m

0.00 mm

00:40

13.5 C

995.6 hpa

76 %

11.3 km/h aus 117

25.7 km/h aus SW

9.4 C

12.4 C

12.7 C

13.2 C

0 W/m

0.00 mm

00:45

13.4 C

995.7 hpa

77 %

9.7 km/h aus 117

20.9 km/h aus S

9.5 C

12.5 C

12.8 C

13.2 C

0 W/m

0.00 mm

00:50

13.3 C

995.7 hpa

77 %

6.4 km/h aus 117

22.5 km/h aus SSW

9.4 C

12.9 C

13.2 C

13.1 C

0 W/m

0.00 mm

00:55

13.3 C

995.7 hpa

78 %

4.8 km/h aus 117

19.3 km/h aus S

9.5 C

13.1 C

13.3 C

13.1 C

0 W/m

0.25 mm

01:00

13.2 C

995.6 hpa

79 %

8.0 km/h aus 113

19.3 km/h aus S

9.6 C

12.5 C

12.7 C

12.9 C

0 W/m

0.00 mm

01:05

13.1 C

995.6 hpa

80 %

6.4 km/h aus 115

14.5 km/h aus SSW

9.7 C

12.7 C

12.9 C

12.9 C

0 W/m

0.00 mm

01:10

12.9 C

995.6 hpa

80 %

8.0 km/h aus 117

16.1 km/h aus SSW

9.6 C

12.3 C

12.5 C

12.8 C

0 W/m

0.00 mm

01:15

12.9 C

995.8 hpa

81 %

4.8 km/h aus 117

17.7 km/h aus SSW

9.7 C

12.7 C

12.9 C

12.7 C

0 W/m

0.00 mm

01:20

12.8 C

995.8 hpa

82 %

11.3 km/h aus 117

22.5 km/h aus SSW

9.8 C

11.7 C

11.8 C

12.7 C

0 W/m

0.00 mm

01:25

12.8 C

995.8 hpa

83 %

12.9 km/h aus 113

20.9 km/h aus SSW

10.0 C

11.3 C

11.4 C

12.7 C

0 W/m

0.00 mm

01:30

12.7 C

995.6 hpa

83 %

12.9 km/h aus 114

24.1 km/h aus S

9.9 C

11.2 C

11.3 C

12.6 C

0 W/m

0.00 mm

01:35

12.6 C

995.6 hpa

83 %

9.7 km/h aus 116

20.9 km/h aus SSW

9.8 C

11.7 C

11.8 C

12.5 C

0 W/m

0.00 mm

01:40

12.5 C

995.6 hpa

84 %

6.4 km/h aus 117

14.5 km/h aus S

9.9 C

12.2 C

12.3 C

12.4 C

0 W/m

0.00 mm

01:45

12.4 C

995.5 hpa

84 %

8.0 km/h aus 118

16.1 km/h aus SSW

9.8 C

11.8 C

11.9 C

12.4 C

0 W/m

0.00 mm

01:50

12.4 C

995.5 hpa

84 %

8.0 km/h aus 114

14.5 km/h aus SSW

9.8 C

11.8 C

11.8 C

12.3 C

0 W/m

0.00 mm

01:55

12.3 C

995.5 hpa

85 %

3.2 km/h aus 115

11.3 km/h aus S

9.9 C

12.3 C

12.3 C

12.3 C

0 W/m

0.00 mm

02:00

12.3 C

995.6 hpa

85 %

3.2 km/h aus 117

8.0 km/h aus SSW

9.8 C

12.2 C

12.3 C

12.2 C

0 W/m

0.00 mm

02:05

12.2 C

995.6 hpa

85 %

0.0 km/h aus 116

1.6 km/h aus SSW

9.8 C

12.2 C

12.2 C

12.2 C

0 W/m

0.00 mm

02:10

12.2 C

995.6 hpa

85 %

1.6 km/h aus 117

6.4 km/h aus SSW

9.7 C

12.1 C

12.2 C

12.1 C

0 W/m

0.00 mm

02:15

12.1 C

995.6 hpa

85 %

4.8 km/h aus 115

14.5 km/h aus S

9.7 C

12.1 C

12.1 C

12.1 C

0 W/m

0.00 mm

02:20

12.1 C

995.6 hpa

86 %

1.6 km/h aus 114

6.4 km/h aus SSW

9.8 C

12.0 C

12.1 C

12.0 C

0 W/m

0.00 mm

02:25

12.0 C

995.6 hpa

86 %

3.2 km/h aus 115

8.0 km/h aus SSW

9.7 C

11.9 C

12.0 C

11.9 C

0 W/m

0.00 mm

02:30

11.9 C

995.6 hpa

86 %

11.3 km/h aus 117

19.3 km/h aus SSE

9.7 C

10.7 C

10.8 C

11.9 C

0 W/m

0.00 mm

02:35

11.9 C

995.6 hpa

86 %

12.9 km/h aus 117

24.1 km/h aus SSW

9.6 C

10.3 C

10.3 C

11.8 C

0 W/m

0.00 mm

02:40

11.8 C

995.6 hpa

86 %

9.7 km/h aus 115

16.1 km/h aus S

9.6 C

10.8 C

10.9 C

11.8 C

0 W/m

0.00 mm

02:45

11.8 C

995.5 hpa

86 %

8.0 km/h aus 114

16.1 km/h aus SSW

9.6 C

11.1 C

11.2 C

11.8 C

0 W/m

0.00 mm

02:50

11.8 C

995.5 hpa

86 %

8.0 km/h aus 118

17.7 km/h aus S

9.5 C

11.0 C

11.1 C

11.7 C

0 W/m

0.00 mm

02:55

11.7 C

995.5 hpa

86 %

8.0 km/h aus 117

19.3 km/h aus SSW

9.5 C

10.9 C

11.0 C

11.7 C

0 W/m

0.00 mm

03:00

11.7 C

995.4 hpa

86 %

3.2 km/h aus 117

9.7 km/h aus SSW

9.5 C

11.7 C

11.7 C

11.7 C

0 W/m

0.00 mm

03:05

11.7 C

995.4 hpa

86 %

4.8 km/h aus 117

19.3 km/h aus SSW

9.4 C

11.6 C

11.7 C

11.6 C

0 W/m

0.00 mm

03:10

11.7 C

995.4 hpa

86 %

12.9 km/h aus 114

24.1 km/h aus S

9.4 C

10.0 C

10.1 C

11.6 C

0 W/m

0.00 mm

03:15

11.7 C

995.4 hpa

86 %

8.0 km/h aus 116

24.1 km/h aus S

9.4 C

10.9 C

10.9 C

11.6 C

0 W/m

0.00 mm

03:20

11.7 C

995.4 hpa

86 %

4.8 km/h aus 117

19.3 km/h aus S

9.4 C

11.6 C

11.7 C

11.6 C

0 W/m

0.00 mm

03:25

11.7 C

995.4 hpa

86 %

1.6 km/h aus 117

6.4 km/h aus SSW

9.4 C

11.6 C

11.7 C

11.6 C

0 W/m

0.00 mm

03:30

11.6 C

995.5 hpa

86 %

6.4 km/h aus 116

16.1 km/h aus SSW

9.3 C

11.2 C

11.2 C

11.6 C

0 W/m

0.00 mm

03:35

11.6 C

995.5 hpa

86 %

9.7 km/h aus 112

19.3 km/h aus S

9.3 C

10.6 C

10.6 C

11.6 C

0 W/m

0.00 mm

03:40

11.6 C

995.5 hpa

86 %

12.9 km/h aus 116

20.9 km/h aus SSE

9.3 C

9.9 C

9.9 C

11.6 C

0 W/m

0.00 mm

03:45

11.6 C

995.6 hpa

86 %

9.7 km/h aus 117

16.1 km/h aus SSW

9.3 C

10.6 C

10.6 C

11.6 C

0 W/m

0.00 mm

03:50

11.5 C

995.6 hpa

87 %

8.0 km/h aus 116

14.5 km/h aus S

9.4 C

10.8 C

10.8 C

11.5 C

0 W/m

0.00 mm

03:55

11.4 C

995.6 hpa

87 %

9.7 km/h aus 117

19.3 km/h aus S

9.4 C

10.4 C

10.4 C

11.4 C

0 W/m

0.00 mm

04:00

11.4 C

995.6 hpa

87 %

11.3 km/h aus 115

19.3 km/h aus S

9.4 C

10.2 C

10.2 C

11.4 C

0 W/m

0.00 mm

04:05

11.3 C

995.6 hpa

87 %

9.7 km/h aus 115

17.7 km/h aus S

9.2 C

10.3 C

10.3 C

11.3 C

0 W/m

0.00 mm

04:10

11.3 C

995.6 hpa

87 %

6.4 km/h aus 115

14.5 km/h aus S

9.2 C

10.9 C

10.9 C

11.3 C

0 W/m

0.00 mm

04:15

11.3 C

995.6 hpa

87 %

6.4 km/h aus 117

16.1 km/h aus S

9.2 C

10.8 C

10.8 C

11.3 C

0 W/m

0.00 mm

04:20

11.2 C

995.6 hpa

87 %

9.7 km/h aus 116

14.5 km/h aus SSW

9.1 C

10.2 C

10.1 C

11.3 C

0 W/m

0.00 mm

04:25

11.2 C

995.6 hpa

87 %

9.7 km/h aus 116

22.5 km/h aus S

9.1 C

10.1 C

10.1 C

11.2 C

0 W/m

0.00 mm

04:30

11.1 C

995.7 hpa

87 %

8.0 km/h aus 115

12.9 km/h aus S

9.0 C

10.4 C

10.3 C

11.2 C

0 W/m

0.00 mm

04:35

11.1 C

995.7 hpa

87 %

4.8 km/h aus 115

9.7 km/h aus SSW

9.0 C

11.1 C

11.1 C

11.2 C

0 W/m

0.00 mm

04:40

11.1 C

995.7 hpa

87 %

4.8 km/h aus 117

9.7 km/h aus SSW

9.0 C

11.1 C

11.0 C

11.1 C

0 W/m

0.00 mm

04:45

11.0 C

995.7 hpa

87 %

6.4 km/h aus 117

11.3 km/h aus SSW

8.9 C

10.6 C

10.6 C

11.1 C

0 W/m

0.00 mm

04:50

11.0 C

995.7 hpa

87 %

6.4 km/h aus 117

14.5 km/h aus SSW

8.9 C

10.6 C

10.6 C

11.1 C

0 W/m

0.00 mm

04:55

10.9 C

995.7 hpa

87 %

6.4 km/h aus 115

11.3 km/h aus SSW

8.9 C

10.5 C

10.4 C

11.0 C

0 W/m

0.00 mm

05:00

10.9 C

995.8 hpa

87 %

6.4 km/h aus 115

19.3 km/h aus S

8.9 C

10.5 C

10.4 C

11.0 C

0 W/m

0.00 mm

05:05

10.9 C

995.8 hpa

87 %

3.2 km/h aus 115

9.7 km/h aus S

8.8 C

10.9 C

10.9 C

10.9 C

0 W/m

0.00 mm

05:10

10.9 C

995.8 hpa

87 %

1.6 km/h aus 116

3.2 km/h aus S

8.8 C

10.9 C

10.9 C

10.9 C

0 W/m

0.00 mm

05:15

10.8 C

995.8 hpa

87 %

1.6 km/h aus 116

6.4 km/h aus SSW

8.8 C

10.9 C

10.8 C

10.9 C

0 W/m

0.00 mm

05:20

10.8 C

995.8 hpa

87 %

1.6 km/h aus 115

8.0 km/h aus SSW

8.8 C

10.9 C

10.8 C

10.9 C

0 W/m

0.00 mm

05:25

10.8 C

995.8 hpa

87 %

1.6 km/h aus 114

8.0 km/h aus SSW

8.7 C

10.8 C

10.8 C

10.8 C

0 W/m

0.00 mm

05:30

10.8 C

995.7 hpa

87 %

3.2 km/h aus 117

9.7 km/h aus S

8.7 C

10.8 C

10.8 C

10.8 C

0 W/m

0.00 mm

05:35

10.7 C

995.7 hpa

87 %

3.2 km/h aus 117

9.7 km/h aus S

8.6 C

10.8 C

10.7 C

10.8 C

0 W/m

0.00 mm

05:40

10.7 C

995.7 hpa

87 %

6.4 km/h aus 117

16.1 km/h aus S

8.6 C

10.3 C

10.2 C

10.8 C

0 W/m

0.00 mm

05:45

10.7 C

995.6 hpa

87 %

9.7 km/h aus 115

16.1 km/h aus S

8.6 C

9.6 C

9.5 C

10.7 C

0 W/m

0.00 mm

05:50

10.7 C

995.6 hpa

86 %

6.4 km/h aus 114

12.9 km/h aus SSW

8.4 C

10.1 C

10.1 C

10.7 C

0 W/m

0.00 mm

05:55

10.6 C

995.6 hpa

86 %

3.2 km/h aus 116

11.3 km/h aus SW

8.4 C

10.6 C

10.6 C

10.6 C

0 W/m

0.00 mm

06:00

10.6 C

995.7 hpa

86 %

1.6 km/h aus 118

8.0 km/h aus SSW

8.3 C

10.6 C

10.6 C

10.6 C

0 W/m

0.00 mm

06:05

10.6 C

995.7 hpa

86 %

0.0 km/h aus 117

0.0 km/h aus ---

8.3 C

10.6 C

10.6 C

10.6 C

0 W/m

0.00 mm

06:10

10.6 C

995.7 hpa

86 %

0.0 km/h aus 116

0.0 km/h aus ---

8.3 C

10.6 C

10.6 C

10.6 C

0 W/m

0.00 mm

06:15

10.5 C

995.6 hpa

86 %

0.0 km/h aus 112

0.0 km/h aus ---

8.3 C

10.6 C

10.5 C

10.6 C

0 W/m

0.00 mm

06:20

10.4 C

995.6 hpa

86 %

0.0 km/h aus 114

0.0 km/h aus ---

8.2 C

10.5 C

10.4 C

10.5 C

0 W/m

0.00 mm

06:25

10.4 C

995.6 hpa

86 %

1.6 km/h aus 116

4.8 km/h aus SSW

8.2 C

10.5 C

10.4 C

10.5 C

0 W/m

0.00 mm

06:30

10.4 C

995.5 hpa

86 %

3.2 km/h aus 117

9.7 km/h aus S

8.1 C

10.4 C

10.4 C

10.4 C

0 W/m

0.00 mm

06:35

10.4 C

995.5 hpa

86 %

3.2 km/h aus 116

8.0 km/h aus S

8.1 C

10.4 C

10.4 C

10.4 C

0 W/m

0.00 mm

06:40

10.3 C

995.5 hpa

86 %

1.6 km/h aus 115

4.8 km/h aus SSW

8.1 C

10.4 C

10.3 C

10.4 C

0 W/m

0.00 mm

06:45

10.3 C

995.6 hpa

85 %

0.0 km/h aus 114

3.2 km/h aus SSW

7.9 C

10.3 C

10.3 C

10.3 C

0 W/m

0.00 mm

06:50

10.3 C

995.6 hpa

85 %

0.0 km/h aus 116

0.0 km/h aus ---

7.9 C

10.3 C

10.3 C

10.3 C

0 W/m

0.00 mm

06:55

10.3 C

995.6 hpa

85 %

0.0 km/h aus 116

1.6 km/h aus SSW

7.9 C

10.3 C

10.3 C

10.3 C

0 W/m

0.00 mm

07:00

10.3 C

995.7 hpa

85 %

0.0 km/h aus 116

0.0 km/h aus ---

7.9 C

10.3 C

10.3 C

10.3 C

0 W/m

0.00 mm

07:05

10.2 C

995.7 hpa

85 %

1.6 km/h aus 118

6.4 km/h aus SSW

7.8 C

10.3 C

10.2 C

10.3 C

0 W/m

0.00 mm

07:10

10.2 C

995.7 hpa

85 %

3.2 km/h aus 114

9.7 km/h aus S

7.8 C

10.2 C

10.2 C

10.2 C

0 W/m

0.00 mm

07:15

10.2 C

995.8 hpa

85 %

8.0 km/h aus 116

17.7 km/h aus SSW

7.8 C

9.3 C

9.2 C

10.2 C

0 W/m

0.00 mm

07:20

10.1 C

995.8 hpa

85 %

1.6 km/h aus 117

6.4 km/h aus SSW

7.7 C

10.2 C

10.1 C

10.2 C

0 W/m

0.00 mm

07:25

10.1 C

995.8 hpa

85 %

1.6 km/h aus 117

6.4 km/h aus SSW

7.7 C

10.2 C

10.1 C

10.2 C

0 W/m

0.00 mm

07:30

10.1 C

996.1 hpa

85 %

1.6 km/h aus 117

6.4 km/h aus SSW

7.7 C

10.2 C

10.1 C

10.2 C

5 W/m

0.00 mm

07:35

10.1 C

996.1 hpa

85 %

6.4 km/h aus 114

19.3 km/h aus S

7.7 C

9.6 C

9.5 C

10.2 C

7 W/m

0.00 mm

07:40

10.2 C

996.1 hpa

84 %

14.5 km/h aus 115

30.6 km/h aus SSE

7.6 C

7.9 C

7.9 C

10.2 C

7 W/m

0.00 mm

07:45

10.3 C

996.1 hpa

84 %

16.1 km/h aus 117

27.4 km/h aus S

7.7 C

7.7 C

7.7 C

10.3 C

11 W/m

0.00 mm

07:50

10.4 C

996.1 hpa

84 %

12.9 km/h aus 116

27.4 km/h aus S

7.8 C

8.5 C

8.5 C

10.4 C

15 W/m

0.00 mm

07:55

10.4 C

996.1 hpa

84 %

12.9 km/h aus 117

27.4 km/h aus S

7.9 C

8.6 C

8.6 C

10.4 C

18 W/m

0.00 mm

08:00

10.6 C

996.2 hpa

83 %

16.1 km/h aus 115

22.5 km/h aus S

7.8 C

8.1 C

8.1 C

10.6 C

23 W/m

0.00 mm

08:05

10.6 C

996.2 hpa

83 %

16.1 km/h aus 113

27.4 km/h aus S

7.8 C

8.1 C

8.1 C

10.6 C

31 W/m

0.00 mm

08:10

10.7 C

996.2 hpa

83 %

14.5 km/h aus 116

24.1 km/h aus SSW

8.0 C

8.5 C

8.6 C

10.7 C

40 W/m

0.00 mm

08:15

10.8 C

996.4 hpa

83 %

11.3 km/h aus 116

22.5 km/h aus SSW

8.0 C

9.3 C

9.4 C

10.7 C

41 W/m

0.00 mm

08:20

10.8 C

996.4 hpa

82 %

12.9 km/h aus 116

24.1 km/h aus S

7.9 C

9.0 C

9.1 C

10.8 C

44 W/m

0.00 mm

08:25

10.9 C

996.4 hpa

82 %

9.7 km/h aus 117

25.7 km/h aus S

7.9 C

9.7 C

9.8 C

10.8 C

51 W/m

0.00 mm

08:30

10.9 C

996.5 hpa

82 %

14.5 km/h aus 115

30.6 km/h aus S

8.0 C

8.8 C

8.8 C

10.9 C

56 W/m

0.00 mm

08:35

11.0 C

996.5 hpa

82 %

11.3 km/h aus 115

17.7 km/h aus SSE

8.0 C

9.6 C

9.7 C

10.9 C

64 W/m

0.00 mm

08:40

11.1 C

996.5 hpa

81 %

14.5 km/h aus 117

24.1 km/h aus SSW

7.9 C

8.8 C

8.9 C

10.9 C

78 W/m

0.00 mm

08:45

11.2 C

996.6 hpa

81 %

16.1 km/h aus 117

30.6 km/h aus SSE

8.0 C

8.6 C

8.7 C

11.1 C

84 W/m

0.00 mm

08:50

11.2 C

996.6 hpa

81 %

12.9 km/h aus 117

20.9 km/h aus S

8.1 C

9.4 C

9.5 C

11.1 C

85 W/m

0.00 mm

08:55

11.3 C

996.6 hpa

80 %

14.5 km/h aus 115

25.7 km/h aus SSW

8.0 C

9.1 C

9.2 C

11.2 C

85 W/m

0.00 mm

09:00

11.4 C

996.6 hpa

80 %

16.1 km/h aus 113

33.8 km/h aus S

8.1 C

8.9 C

9.0 C

11.3 C

88 W/m

0.00 mm

09:05

11.4 C

996.6 hpa

79 %

14.5 km/h aus 117

24.1 km/h aus S

7.9 C

9.2 C

9.4 C

11.3 C

77 W/m

0.00 mm

09:10

11.5 C

996.6 hpa

78 %

17.7 km/h aus 117

29.0 km/h aus SSW

7.8 C

8.7 C

8.8 C

11.3 C

85 W/m

0.00 mm

09:15

11.6 C

996.4 hpa

78 %

12.9 km/h aus 116

24.1 km/h aus S

7.8 C

9.7 C

9.9 C

11.3 C

131 W/m

0.00 mm

09:20

11.7 C

996.4 hpa

77 %

20.9 km/h aus 116

32.2 km/h aus S

7.8 C

8.3 C

8.6 C

11.5 C

139 W/m

0.00 mm

09:25

12.0 C

996.4 hpa

76 %

16.1 km/h aus 114

29.0 km/h aus S

7.9 C

9.4 C

9.7 C

11.7 C

204 W/m

0.00 mm

09:30

12.3 C

996.6 hpa

75 %

20.9 km/h aus 117

35.4 km/h aus SSW

8.0 C

8.9 C

9.2 C

12.0 C

218 W/m

0.00 mm

09:35

12.4 C

996.6 hpa

75 %

24.1 km/h aus 117

43.5 km/h aus S

8.1 C

8.7 C

8.9 C

12.1 C

252 W/m

0.00 mm

09:40

12.5 C

996.6 hpa

74 %

20.9 km/h aus 117

48.3 km/h aus S

8.0 C

9.2 C

9.4 C

12.2 C

268 W/m

0.00 mm

09:45

12.6 C

996.5 hpa

74 %

27.4 km/h aus 115

46.7 km/h aus S

8.0 C

8.4 C

8.8 C

12.2 C

262 W/m

0.00 mm

09:50

12.3 C

996.5 hpa

74 %

24.1 km/h aus 114

33.8 km/h aus S

7.8 C

8.5 C

8.8 C

12.0 C

123 W/m

0.00 mm

09:55

12.4 C

996.5 hpa

74 %

22.5 km/h aus 117

38.6 km/h aus S

7.9 C

8.9 C

9.2 C

12.2 C

288 W/m

0.00 mm

10:00

12.8 C

996.7 hpa

75 %

17.7 km/h aus 116

29.0 km/h aus SSW

8.5 C

10.1 C

10.3 C

12.5 C

292 W/m

0.00 mm

10:05

12.8 C

996.7 hpa

72 %

20.9 km/h aus 117

35.4 km/h aus S

7.9 C

9.4 C

9.8 C

12.4 C

300 W/m

0.00 mm

10:10

12.8 C

996.7 hpa

73 %

20.9 km/h aus 114

35.4 km/h aus S

8.1 C

9.5 C

9.8 C

12.5 C

184 W/m

0.00 mm

10:15

12.4 C

996.7 hpa

72 %

20.9 km/h aus 115

32.2 km/h aus S

7.5 C

9.1 C

9.4 C

12.1 C

51 W/m

0.00 mm

10:20

12.2 C

996.7 hpa

72 %

17.7 km/h aus 118

35.4 km/h aus SSW

7.3 C

9.3 C

9.7 C

11.9 C

112 W/m

0.00 mm

10:25

12.3 C

996.7 hpa

72 %

20.9 km/h aus 116

35.4 km/h aus S

7.4 C

8.9 C

9.2 C

12.0 C

211 W/m

0.00 mm

10:30

12.3 C

996.6 hpa

72 %

22.5 km/h aus 117

40.2 km/h aus SW

7.4 C

8.7 C

9.1 C

12.0 C

122 W/m

0.00 mm

10:35

12.2 C

996.6 hpa

72 %

20.9 km/h aus 115

33.8 km/h aus S

7.3 C

8.8 C

9.1 C

11.9 C

120 W/m

0.00 mm

10:40

12.2 C

996.6 hpa

72 %

16.1 km/h aus 114

33.8 km/h aus S

7.3 C

9.6 C

9.9 C

11.8 C

181 W/m

0.00 mm

10:45

12.2 C

996.6 hpa

73 %

17.7 km/h aus 116

35.4 km/h aus SW

7.5 C

9.3 C

9.7 C

11.9 C

191 W/m

0.00 mm

10:50

12.2 C

996.6 hpa

72 %

22.5 km/h aus 117

35.4 km/h aus SSW

7.3 C

8.6 C

8.9 C

11.9 C

183 W/m

0.00 mm

10:55

12.2 C

996.6 hpa

72 %

16.1 km/h aus 117

32.2 km/h aus S

7.3 C

9.7 C

10.0 C

11.9 C

175 W/m

0.00 mm

11:00

12.2 C

996.7 hpa

73 %

16.1 km/h aus 114

37.0 km/h aus SSE

7.5 C

9.7 C

10.0 C

11.9 C

194 W/m

0.00 mm

11:05

12.3 C

996.7 hpa

73 %

22.5 km/h aus 115

38.6 km/h aus S

7.6 C

8.7 C

9.0 C

11.9 C

199 W/m

0.00 mm

11:10

12.2 C

996.7 hpa

73 %

17.7 km/h aus 117

32.2 km/h aus S

7.5 C

9.3 C

9.7 C

11.9 C

173 W/m

0.00 mm

11:15

12.2 C

996.7 hpa

72 %

19.3 km/h aus 116

30.6 km/h aus S

7.3 C

9.1 C

9.4 C

11.9 C

162 W/m

0.00 mm

11:20

12.2 C

996.7 hpa

74 %

16.1 km/h aus 118

29.0 km/h aus S

7.7 C

9.7 C

10.0 C

11.9 C

163 W/m

0.00 mm

11:25

12.4 C

996.7 hpa

72 %

11.3 km/h aus 115

30.6 km/h aus SSW

7.5 C

11.0 C

11.3 C

12.1 C

257 W/m

0.00 mm

11:30

12.7 C

996.6 hpa

72 %

11.3 km/h aus 115

25.7 km/h aus S

7.7 C

11.3 C

11.7 C

12.3 C

266 W/m

0.00 mm

11:35

13.1 C

996.6 hpa

73 %

14.5 km/h aus 116

29.0 km/h aus S

8.4 C

11.0 C

11.4 C

12.7 C

413 W/m

0.00 mm

11:40

13.3 C

996.6 hpa

70 %

16.1 km/h aus 117

24.1 km/h aus SSW

8.0 C

10.8 C

11.3 C

12.9 C

479 W/m

0.00 mm

11:45

13.4 C

996.6 hpa

68 %

9.7 km/h aus 116

25.7 km/h aus SSW

7.6 C

12.2 C

12.7 C

12.9 C

467 W/m

0.00 mm

11:50

13.6 C

996.6 hpa

71 %

20.9 km/h aus 113

37.0 km/h aus S

8.4 C

10.2 C

10.7 C

13.1 C

444 W/m

0.00 mm

11:55

13.8 C

996.6 hpa

68 %

12.9 km/h aus 115

22.5 km/h aus S

8.0 C

12.2 C

12.7 C

13.3 C

461 W/m

0.00 mm

12:00

13.7 C

996.5 hpa

68 %

12.9 km/h aus 117

29.0 km/h aus S

7.9 C

11.9 C

12.4 C

13.2 C

484 W/m

0.00 mm

12:05

13.8 C

996.5 hpa

70 %

22.5 km/h aus 116

35.4 km/h aus SSW

8.5 C

10.3 C

10.8 C

13.4 C

456 W/m

0.00 mm

12:10

14.1 C

996.5 hpa

70 %

16.1 km/h aus 116

32.2 km/h aus S

8.7 C

11.7 C

12.2 C

13.7 C

444 W/m

0.00 mm

12:15

13.8 C

996.2 hpa

70 %

16.1 km/h aus 114

25.7 km/h aus S

8.4 C

11.4 C

11.8 C

13.3 C

294 W/m

0.00 mm

12:20

13.9 C

996.2 hpa

70 %

19.3 km/h aus 117

30.6 km/h aus S

8.6 C

10.9 C

11.3 C

13.5 C

429 W/m

0.00 mm

12:25

13.7 C

996.2 hpa

67 %

19.3 km/h aus 118

27.4 km/h aus SSW

7.7 C

10.6 C

11.1 C

13.2 C

434 W/m

0.00 mm

12:30

13.9 C

996.1 hpa

67 %

12.9 km/h aus 116

22.5 km/h aus SSW

7.9 C

12.2 C

12.7 C

13.4 C

457 W/m

0.00 mm

12:35

14.4 C

996.1 hpa

67 %

6.4 km/h aus 115

16.1 km/h aus SW

8.4 C

13.9 C

14.4 C

13.9 C

457 W/m

0.00 mm

12:40

14.6 C

996.1 hpa

65 %

12.9 km/h aus 116

29.0 km/h aus SSE

8.0 C

12.9 C

13.5 C

14.0 C

476 W/m

0.00 mm

12:45

14.4 C

996.1 hpa

64 %

12.9 km/h aus 116

27.4 km/h aus SSW

7.7 C

12.7 C

13.3 C

13.8 C

462 W/m

0.00 mm

12:50

14.6 C

996.1 hpa

65 %

9.7 km/h aus 117

22.5 km/h aus WSW

8.1 C

13.7 C

14.2 C

14.1 C

420 W/m

0.00 mm

12:55

14.4 C

996.1 hpa

64 %

14.5 km/h aus 116

30.6 km/h aus S

7.7 C

12.3 C

12.9 C

13.8 C

386 W/m

0.00 mm

13:00

14.3 C

996.1 hpa

63 %

11.3 km/h aus 114

25.7 km/h aus SW

7.4 C

13.1 C

13.7 C

13.7 C

399 W/m

0.00 mm

13:05

14.3 C

996.1 hpa

63 %

9.7 km/h aus 116

20.9 km/h aus S

7.4 C

13.3 C

13.9 C

13.7 C

363 W/m

0.00 mm

13:10

14.1 C

996.1 hpa

62 %

14.5 km/h aus 117

30.6 km/h aus WSW

6.9 C

11.9 C

12.6 C

13.4 C

351 W/m

0.00 mm

13:15

14.1 C

995.9 hpa

63 %

24.1 km/h aus 116

41.8 km/h aus S

7.2 C

10.3 C

10.9 C

13.5 C

340 W/m

0.00 mm

13:20

14.2 C

995.9 hpa

62 %

12.9 km/h aus 114

30.6 km/h aus S

7.0 C

12.4 C

13.1 C

13.5 C

343 W/m

0.00 mm

13:25

14.2 C

995.9 hpa

63 %

17.7 km/h aus 115

35.4 km/h aus S

7.3 C

11.4 C

12.0 C

13.6 C

354 W/m

0.00 mm

13:30

14.3 C

996.0 hpa

63 %

20.9 km/h aus 118

41.8 km/h aus S

7.4 C

10.9 C

11.6 C

13.7 C

391 W/m

0.00 mm

13:35

14.4 C

996.0 hpa

61 %

11.3 km/h aus 116

25.7 km/h aus SW

7.0 C

13.1 C

13.8 C

13.8 C

400 W/m

0.00 mm

13:40

14.4 C

996.0 hpa

63 %

8.0 km/h aus 115

17.7 km/h aus SW

7.4 C

13.6 C

14.2 C

13.8 C

344 W/m

0.00 mm

13:45

14.3 C

996.1 hpa

64 %

6.4 km/h aus 112

20.9 km/h aus S

7.6 C

13.7 C

14.3 C

13.7 C

313 W/m

0.00 mm

13:50

14.4 C

996.1 hpa

60 %

16.1 km/h aus 117

32.2 km/h aus S

6.8 C

11.8 C

12.6 C

13.7 C

348 W/m

0.00 mm

13:55

14.3 C

996.1 hpa

60 %

16.1 km/h aus 117

29.0 km/h aus SSW

6.6 C

11.7 C

12.4 C

13.6 C

310 W/m

0.00 mm

14:00

14.2 C

996.1 hpa

60 %

16.1 km/h aus 117

27.4 km/h aus SSW

6.5 C

11.6 C

12.3 C

13.4 C

315 W/m

0.00 mm

14:05

14.3 C

996.1 hpa

60 %

11.3 km/h aus 115

24.1 km/h aus S

6.6 C

12.8 C

13.6 C

13.6 C

325 W/m

0.00 mm

14:10

14.8 C

996.1 hpa

62 %

11.3 km/h aus 116

22.5 km/h aus S

7.6 C

13.5 C

14.2 C

14.1 C

261 W/m

0.00 mm

14:15

14.3 C

996.2 hpa

61 %

17.7 km/h aus 117

27.4 km/h aus S

6.9 C

11.4 C

12.1 C

13.6 C

133 W/m

0.00 mm

14:20

14.0 C

996.2 hpa

60 %

9.7 km/h aus 117

20.9 km/h aus SSW

6.4 C

12.7 C

13.4 C

13.3 C

153 W/m

0.00 mm

14:25

13.9 C

996.2 hpa

62 %

4.8 km/h aus 115

16.1 km/h aus SW

6.8 C

13.3 C

13.9 C

13.3 C

156 W/m

0.00 mm

14:30

13.9 C

996.2 hpa

61 %

16.1 km/h aus 115

30.6 km/h aus SSE

6.5 C

11.3 C

12.0 C

13.3 C

175 W/m

0.00 mm

14:35

14.1 C

996.2 hpa

60 %

14.5 km/h aus 117

27.4 km/h aus S

6.4 C

11.8 C

12.5 C

13.3 C

152 W/m

0.00 mm

14:40

13.8 C

996.2 hpa

62 %

20.9 km/h aus 116

33.8 km/h aus S

6.7 C

10.3 C

11.0 C

13.2 C

103 W/m

0.00 mm

14:45

13.7 C

996.2 hpa

61 %

14.5 km/h aus 117

25.7 km/h aus SSW

6.3 C

11.4 C

12.1 C

13.1 C

106 W/m

0.00 mm

14:50

13.8 C

996.2 hpa

60 %

9.7 km/h aus 115

20.9 km/h aus SSW

6.2 C

12.6 C

13.3 C

13.1 C

169 W/m

0.00 mm

14:55

13.8 C

996.2 hpa

61 %

14.5 km/h aus 116

25.7 km/h aus SSW

6.4 C

11.5 C

12.2 C

13.1 C

121 W/m

0.00 mm

15:00

13.6 C

996.2 hpa

62 %

16.1 km/h aus 116

27.4 km/h aus S

6.5 C

10.9 C

11.6 C

12.9 C

93 W/m

0.00 mm

15:05

13.4 C

996.2 hpa

63 %

17.7 km/h aus 117

25.7 km/h aus S

6.5 C

10.4 C

11.1 C

12.8 C

86 W/m

0.00 mm

15:10

13.3 C

996.2 hpa

64 %

16.1 km/h aus 116

25.7 km/h aus SSE

6.7 C

10.7 C

11.3 C

12.7 C

76 W/m

0.00 mm

15:15

13.3 C

996.2 hpa

63 %

14.5 km/h aus 114

22.5 km/h aus SW

6.4 C

11.1 C

11.7 C

12.7 C

59 W/m

0.00 mm

15:20

13.4 C

996.2 hpa

64 %

12.9 km/h aus 116

22.5 km/h aus S

6.7 C

11.5 C

12.1 C

12.8 C

53 W/m

0.00 mm

15:25

13.4 C

996.2 hpa

64 %

16.1 km/h aus 116

24.1 km/h aus S

6.7 C

10.7 C

11.3 C

12.8 C

39 W/m

0.00 mm

15:30

13.3 C

996.3 hpa

64 %

11.3 km/h aus 117

22.5 km/h aus S

6.7 C

11.8 C

12.4 C

12.7 C

38 W/m

0.00 mm

15:35

13.3 C

996.3 hpa

64 %

9.7 km/h aus 118

20.9 km/h aus S

6.7 C

12.1 C

12.7 C

12.7 C

34 W/m

0.00 mm

15:40

13.3 C

996.3 hpa

63 %

6.4 km/h aus 114

16.1 km/h aus S

6.4 C

12.6 C

13.2 C

12.7 C

46 W/m

0.00 mm

15:45

13.3 C

996.2 hpa

64 %

8.0 km/h aus 115

17.7 km/h aus S

6.6 C

12.3 C

12.9 C

12.7 C

42 W/m

0.00 mm

15:50

13.3 C

996.2 hpa

64 %

4.8 km/h aus 117

8.0 km/h aus S

6.6 C

12.7 C

13.3 C

12.7 C

41 W/m

0.00 mm

15:55

13.2 C

996.2 hpa

64 %

8.0 km/h aus 116

16.1 km/h aus S

6.6 C

12.2 C

12.8 C

12.6 C

42 W/m

0.00 mm

16:00

13.2 C

996.2 hpa

64 %

9.7 km/h aus 116

19.3 km/h aus S

6.5 C

11.8 C

12.4 C

12.6 C

31 W/m

0.00 mm

16:05

13.1 C

996.2 hpa

64 %

9.7 km/h aus 115

19.3 km/h aus S

6.4 C

11.8 C

12.4 C

12.5 C

25 W/m

0.00 mm

16:10

13.0 C

996.2 hpa

64 %

6.4 km/h aus 116

16.1 km/h aus S

6.3 C

12.2 C

12.8 C

12.4 C

24 W/m

0.00 mm

16:15

12.9 C

996.4 hpa

64 %

11.3 km/h aus 117

17.7 km/h aus S

6.3 C

11.4 C

12.0 C

12.3 C

20 W/m

0.00 mm

16:20

12.9 C

996.4 hpa

65 %

9.7 km/h aus 116

17.7 km/h aus S

6.5 C

11.6 C

12.1 C

12.3 C

24 W/m

0.00 mm

16:25

12.8 C

996.4 hpa

65 %

9.7 km/h aus 116

14.5 km/h aus S

6.4 C

11.5 C

12.1 C

12.3 C

20 W/m

0.00 mm

16:30

12.8 C

996.6 hpa

66 %

6.4 km/h aus 114

11.3 km/h aus S

6.6 C

12.0 C

12.6 C

12.2 C

17 W/m

0.00 mm

16:35

12.7 C

996.6 hpa

66 %

6.4 km/h aus 116

9.7 km/h aus S

6.5 C

11.9 C

12.5 C

12.2 C

13 W/m

0.00 mm

16:40

12.6 C

996.6 hpa

67 %

6.4 km/h aus 118

11.3 km/h aus S

6.6 C

11.9 C

12.4 C

12.1 C

11 W/m

0.00 mm

16:45

12.5 C

996.7 hpa

67 %

6.4 km/h aus 117

12.9 km/h aus S

6.5 C

11.8 C

12.3 C

12.0 C

6 W/m

0.00 mm

16:50

12.4 C

996.7 hpa

68 %

6.4 km/h aus 116

9.7 km/h aus S

6.6 C

11.7 C

12.1 C

11.9 C

2 W/m

0.00 mm

16:55

12.3 C

996.7 hpa

68 %

8.0 km/h aus 115

11.3 km/h aus S

6.5 C

11.2 C

11.7 C

11.8 C

0 W/m

0.00 mm

17:00

12.1 C

996.7 hpa

68 %

8.0 km/h aus 114

12.9 km/h aus S

6.4 C

11.1 C

11.5 C

11.7 C

0 W/m

0.00 mm

17:05

12.0 C

996.7 hpa

69 %

9.7 km/h aus 117

12.9 km/h aus S

6.5 C

10.6 C

11.1 C

11.6 C

0 W/m

0.00 mm

17:10

11.9 C

996.7 hpa

69 %

11.3 km/h aus 116

20.9 km/h aus S

6.4 C

10.3 C

10.7 C

11.5 C

0 W/m

0.00 mm

17:15

11.8 C

996.7 hpa

69 %

11.3 km/h aus 117

17.7 km/h aus S

6.3 C

10.2 C

10.6 C

11.4 C

0 W/m

0.00 mm

17:20

11.7 C

996.7 hpa

69 %

8.0 km/h aus 114

11.3 km/h aus S

6.2 C

10.6 C

11.0 C

11.3 C

0 W/m

0.00 mm

17:25

11.7 C

996.7 hpa

70 %

9.7 km/h aus 115

16.1 km/h aus SSE

6.4 C

10.3 C

10.7 C

11.3 C

0 W/m

0.00 mm

17:30

11.7 C

996.9 hpa

70 %

8.0 km/h aus 117

11.3 km/h aus S

6.4 C

10.6 C

10.9 C

11.3 C

0 W/m

0.00 mm

17:35

11.6 C

996.9 hpa

70 %

6.4 km/h aus 117

11.3 km/h aus S

6.3 C

10.8 C

11.2 C

11.2 C

0 W/m

0.00 mm

17:40

11.6 C

996.9 hpa

70 %

6.4 km/h aus 116

9.7 km/h aus S

6.3 C

10.8 C

11.2 C

11.2 C

0 W/m

0.00 mm

17:45

11.5 C

997.1 hpa

70 %

4.8 km/h aus 116

8.0 km/h aus S

6.2 C

11.1 C

11.5 C

11.1 C

0 W/m

0.00 mm

17:50

11.4 C

997.1 hpa

70 %

4.8 km/h aus 114

8.0 km/h aus S

6.2 C

11.1 C

11.4 C

11.1 C

0 W/m

0.00 mm

17:55

11.4 C

997.1 hpa

70 %

4.8 km/h aus 117

8.0 km/h aus S

6.1 C

11.1 C

11.4 C

11.1 C

0 W/m

0.00 mm

18:00

11.3 C

997.0 hpa

71 %

4.8 km/h aus 117

6.4 km/h aus S

6.2 C

10.9 C

11.2 C

10.9 C

0 W/m

0.00 mm

18:05

11.2 C

997.0 hpa

71 %

3.2 km/h aus 116

6.4 km/h aus S

6.2 C

10.9 C

11.2 C

10.9 C

0 W/m

0.00 mm

18:10

11.1 C

997.0 hpa

71 %

1.6 km/h aus 117

4.8 km/h aus S

6.0 C

10.8 C

11.1 C

10.8 C

0 W/m

0.00 mm

18:15

10.9 C

996.9 hpa

70 %

0.0 km/h aus 114

3.2 km/h aus S

5.7 C

10.6 C

10.9 C

10.6 C

0 W/m

0.00 mm

18:20

10.8 C

996.9 hpa

70 %

0.0 km/h aus 116

0.0 km/h aus ---

5.6 C

10.6 C

10.8 C

10.6 C

0 W/m

0.00 mm

18:25

10.7 C

996.9 hpa

70 %

0.0 km/h aus 116

0.0 km/h aus ---

5.4 C

10.4 C

10.7 C

10.4 C

0 W/m

0.00 mm

18:30

10.5 C

996.8 hpa

70 %

0.0 km/h aus 117

0.0 km/h aus ---

5.3 C

10.2 C

10.5 C

10.2 C

0 W/m

0.00 mm

18:35

10.3 C

996.8 hpa

70 %

0.0 km/h aus 116

0.0 km/h aus ---

5.1 C

10.1 C

10.3 C

10.1 C

0 W/m

0.00 mm

18:40

10.2 C

996.8 hpa

70 %

0.0 km/h aus 115

0.0 km/h aus ---

4.9 C

9.9 C

10.2 C

9.9 C

0 W/m

0.00 mm

18:45

10.0 C

997.1 hpa

70 %

0.0 km/h aus 114

1.6 km/h aus S

4.8 C

9.8 C

10.0 C

9.8 C

0 W/m

0.00 mm

18:50

9.8 C

997.1 hpa

71 %

0.0 km/h aus 117

0.0 km/h aus ---

4.8 C

9.6 C

9.8 C

9.6 C

0 W/m

0.00 mm

18:55

9.6 C

997.1 hpa

71 %

0.0 km/h aus 116

0.0 km/h aus ---

4.6 C

9.4 C

9.6 C

9.4 C

0 W/m

0.00 mm

19:00

9.5 C

997.2 hpa

72 %

0.0 km/h aus 117

0.0 km/h aus ---

4.7 C

9.3 C

9.5 C

9.3 C

0 W/m

0.00 mm

19:05

9.4 C

997.2 hpa

73 %

0.0 km/h aus 116

4.8 km/h aus S

4.8 C

9.3 C

9.4 C

9.3 C

0 W/m

0.00 mm

19:10

9.4 C

997.2 hpa

75 %

1.6 km/h aus 115

6.4 km/h aus S

5.2 C

9.3 C

9.4 C

9.3 C

0 W/m

0.00 mm

19:15

9.4 C

997.3 hpa

75 %

0.0 km/h aus 114

0.0 km/h aus ---

5.2 C

9.2 C

9.4 C

9.2 C

0 W/m

0.00 mm

19:20

9.4 C

997.3 hpa

76 %

0.0 km/h aus 117

0.0 km/h aus ---

5.4 C

9.2 C

9.4 C

9.2 C

0 W/m

0.00 mm

19:25

9.4 C

997.3 hpa

77 %

0.0 km/h aus 117

0.0 km/h aus ---

5.6 C

9.3 C

9.4 C

9.3 C

0 W/m

0.00 mm

19:30

9.4 C

997.3 hpa

78 %

0.0 km/h aus 116

0.0 km/h aus ---

5.7 C

9.3 C

9.4 C

9.3 C

0 W/m

0.00 mm

19:35

9.4 C

997.3 hpa

78 %

1.6 km/h aus 116

6.4 km/h aus S

5.7 C

9.3 C

9.4 C

9.3 C

0 W/m

0.00 mm

19:40

9.4 C

997.3 hpa

79 %

1.6 km/h aus 115

6.4 km/h aus S

5.9 C

9.3 C

9.4 C

9.3 C

0 W/m

0.00 mm

19:45

9.3 C

997.3 hpa

79 %

0.0 km/h aus 114

0.0 km/h aus ---

5.9 C

9.3 C

9.3 C

9.3 C

0 W/m

0.00 mm

19:50

9.3 C

997.3 hpa

79 %

0.0 km/h aus 117

0.0 km/h aus ---

5.9 C

9.3 C

9.3 C

9.3 C

0 W/m

0.00 mm

19:55

9.3 C

997.3 hpa

79 %

0.0 km/h aus 117

0.0 km/h aus ---

5.9 C

9.3 C

9.3 C

9.3 C

0 W/m

0.00 mm

20:00

9.3 C

997.2 hpa

79 %

0.0 km/h aus 115

0.0 km/h aus ---

5.8 C

9.2 C

9.3 C

9.2 C

0 W/m

0.00 mm

20:05

9.3 C

997.2 hpa

79 %

4.8 km/h aus 116

9.7 km/h aus S

5.8 C

8.9 C

9.0 C

9.2 C

0 W/m

0.00 mm

20:10

9.3 C

997.2 hpa

80 %

6.4 km/h aus 114

11.3 km/h aus S

6.1 C

8.6 C

8.6 C

9.3 C

0 W/m

0.00 mm

20:15

9.4 C

997.2 hpa

80 %

8.0 km/h aus 116

11.3 km/h aus S

6.1 C

8.2 C

8.3 C

9.3 C

0 W/m

0.00 mm

20:20

9.5 C

997.2 hpa

81 %

8.0 km/h aus 116

11.3 km/h aus S

6.4 C

8.3 C

8.4 C

9.4 C

0 W/m

0.00 mm

20:25

9.6 C

997.2 hpa

81 %

8.0 km/h aus 117

11.3 km/h aus S

6.5 C

8.4 C

8.4 C

9.6 C

0 W/m

0.00 mm

20:30

9.7 C

997.4 hpa

81 %

8.0 km/h aus 117

11.3 km/h aus S

6.6 C

8.6 C

8.6 C

9.7 C

0 W/m

0.00 mm

20:35

9.8 C

997.4 hpa

80 %

9.7 km/h aus 114

14.5 km/h aus SSE

6.5 C

8.4 C

8.4 C

9.8 C

0 W/m

0.00 mm

20:40

9.8 C

997.4 hpa

80 %

8.0 km/h aus 114

9.7 km/h aus SSE

6.5 C

8.8 C

8.8 C

9.8 C

0 W/m

0.00 mm

20:45

9.9 C

997.3 hpa

80 %

6.4 km/h aus 115

14.5 km/h aus S

6.7 C

9.3 C

9.3 C

9.9 C

0 W/m

0.00 mm

20:50

9.9 C

997.3 hpa

79 %

6.4 km/h aus 116

9.7 km/h aus S

6.5 C

9.3 C

9.3 C

9.9 C

0 W/m

0.00 mm

20:55

9.9 C

997.3 hpa

79 %

4.8 km/h aus 117

6.4 km/h aus S

6.5 C

9.8 C

9.8 C

9.9 C

0 W/m

0.00 mm

21:00

9.9 C

997.3 hpa

79 %

3.2 km/h aus 117

6.4 km/h aus S

6.5 C

9.9 C

9.9 C

9.9 C

0 W/m

0.00 mm

21:05

9.9 C

997.3 hpa

79 %

1.6 km/h aus 114

4.8 km/h aus S

6.5 C

9.9 C

9.9 C

9.9 C

0 W/m

0.00 mm

21:10

9.8 C

997.3 hpa

78 %

3.2 km/h aus 117

9.7 km/h aus S

6.2 C

9.8 C

9.8 C

9.8 C

0 W/m

0.00 mm

21:15

9.8 C

997.2 hpa

78 %

4.8 km/h aus 115

9.7 km/h aus S

6.1 C

9.5 C

9.6 C

9.7 C

0 W/m

0.00 mm

21:20

9.7 C

997.2 hpa

78 %

3.2 km/h aus 117

8.0 km/h aus S

6.0 C

9.6 C

9.7 C

9.6 C

0 W/m

0.00 mm

21:25

9.6 C

997.2 hpa

78 %

3.2 km/h aus 117

8.0 km/h aus S

5.9 C

9.4 C

9.6 C

9.4 C

0 W/m

0.00 mm

21:30

9.4 C

997.4 hpa

78 %

3.2 km/h aus 114

9.7 km/h aus S

5.8 C

9.3 C

9.4 C

9.3 C

0 W/m

0.00 mm

21:35

9.3 C

997.4 hpa

79 %

3.2 km/h aus 116

6.4 km/h aus SSE

5.9 C

9.3 C

9.3 C

9.3 C

0 W/m

0.00 mm

21:40

9.3 C

997.4 hpa

79 %

3.2 km/h aus 116

9.7 km/h aus SSE

5.8 C

9.2 C

9.3 C

9.2 C

0 W/m

0.00 mm

21:45

9.2 C

997.3 hpa

79 %

4.8 km/h aus 117

9.7 km/h aus SSE

5.7 C

8.8 C

8.9 C

9.1 C

0 W/m

0.00 mm

21:50

9.1 C

997.3 hpa

80 %

6.4 km/h aus 117

11.3 km/h aus SSE

5.8 C

8.2 C

8.3 C

9.0 C

0 W/m

0.00 mm

21:55

8.9 C

997.3 hpa

80 %

4.8 km/h aus 115

12.9 km/h aus SE

5.7 C

8.6 C

8.6 C

8.9 C

0 W/m

0.00 mm

22:00

8.9 C

997.4 hpa

81 %

6.4 km/h aus 114

14.5 km/h aus SSE

5.8 C

8.1 C

8.1 C

8.8 C

0 W/m

0.00 mm

22:05

8.8 C

997.4 hpa

82 %

6.4 km/h aus 118

16.1 km/h aus SSE

5.9 C

8.0 C

8.1 C

8.8 C

0 W/m

0.00 mm

22:10

8.8 C

997.4 hpa

82 %

8.0 km/h aus 117

14.5 km/h aus SSE

5.9 C

7.6 C

7.7 C

8.8 C

0 W/m

0.00 mm

22:15

8.8 C

997.5 hpa

82 %

8.0 km/h aus 117

16.1 km/h aus SSE

5.9 C

7.6 C

7.7 C

8.8 C

0 W/m

0.00 mm

22:20

8.8 C

997.5 hpa

83 %

6.4 km/h aus 117

14.5 km/h aus SSE

6.0 C

8.0 C

8.0 C

8.8 C

0 W/m

0.00 mm

22:25

8.8 C

997.5 hpa

83 %

6.4 km/h aus 114

14.5 km/h aus SSE

6.0 C

8.0 C

8.0 C

8.8 C

0 W/m

0.00 mm

22:30

8.8 C

997.4 hpa

84 %

4.8 km/h aus 113

11.3 km/h aus SSE

6.2 C

8.4 C

8.4 C

8.8 C

0 W/m

0.00 mm

22:35

8.7 C

997.4 hpa

84 %

4.8 km/h aus 117

11.3 km/h aus SE

6.2 C

8.4 C

8.4 C

8.7 C

0 W/m

0.00 mm

22:40

8.7 C

997.4 hpa

84 %

4.8 km/h aus 117

11.3 km/h aus SE

6.2 C

8.4 C

8.4 C

8.7 C

0 W/m

0.00 mm

22:45

8.7 C

997.4 hpa

85 %

6.4 km/h aus 117

11.3 km/h aus SE

6.3 C

7.8 C

7.8 C

8.7 C

0 W/m

0.00 mm

22:50

8.6 C

997.4 hpa

85 %

4.8 km/h aus 116

9.7 km/h aus SSE

6.2 C

8.2 C

8.2 C

8.6 C

0 W/m

0.00 mm

22:55

8.6 C

997.4 hpa

85 %

4.8 km/h aus 115

11.3 km/h aus SE

6.2 C

8.2 C

8.2 C

8.6 C

0 W/m

0.00 mm

23:00

8.6 C

997.3 hpa

85 %

9.7 km/h aus 115

16.1 km/h aus SSE

6.2 C

7.0 C

7.0 C

8.6 C

0 W/m

0.00 mm

23:05

8.5 C

997.3 hpa

85 %

9.7 km/h aus 118

16.1 km/h aus S

6.1 C

6.9 C

6.9 C

8.5 C

0 W/m

0.00 mm

23:10

8.4 C

997.3 hpa

85 %

11.3 km/h aus 117

19.3 km/h aus SSE

6.1 C

6.6 C

6.6 C

8.4 C

0 W/m

0.00 mm

23:15

8.4 C

997.2 hpa

85 %

14.5 km/h aus 117

22.5 km/h aus S

6.1 C

5.8 C

5.8 C

8.4 C

0 W/m

0.00 mm

23:20

8.5 C

997.2 hpa

85 %

12.9 km/h aus 117

19.3 km/h aus S

6.1 C

6.3 C

6.3 C

8.5 C

0 W/m

0.00 mm

23:25

8.6 C

997.2 hpa

85 %

14.5 km/h aus 114

19.3 km/h aus S

6.2 C

6.0 C

6.0 C

8.6 C

0 W/m

0.00 mm

23:30

8.6 C

997.2 hpa

85 %

11.3 km/h aus 116

19.3 km/h aus SSE

6.2 C

6.8 C

6.8 C

8.6 C

0 W/m

0.00 mm

23:35

8.7 C

997.2 hpa

85 %

11.3 km/h aus 116

19.3 km/h aus SSE

6.3 C

6.8 C

6.8 C

8.7 C

0 W/m

0.00 mm

23:40

8.7 C

997.2 hpa

85 %

11.3 km/h aus 117

17.7 km/h aus S

6.3 C

6.8 C

6.8 C

8.7 C

0 W/m

0.00 mm

23:45

8.7 C

997.2 hpa

84 %

9.7 km/h aus 116

14.5 km/h aus SSE

6.1 C

7.1 C

7.1 C

8.7 C

0 W/m

0.00 mm

23:50

8.7 C

997.2 hpa

84 %

9.7 km/h aus 116

17.7 km/h aus SSE

6.1 C

7.1 C

7.1 C

8.7 C

0 W/m

0.00 mm

23:55

8.6 C

997.2 hpa

84 %

11.3 km/h aus 113

16.1 km/h aus SSE

6.1 C

6.8 C

6.8 C

8.6 C

0 W/m

0.00 mm